Probability
0 0 0 0 0 0 0 0 0 0 0 0 0 0 1 1 1 0 0 0 0 0 0 0 0 0 0 0 0 0 0 0 0 0 0 0 0 0
0 0 0 0 0 0 0 0 0 0 0 0 0 0 0 0 0 0 0 0 0 0 0 0 0 0 0 0 0 0 0 0 0 0 0 0 0 0
0 0 0 0 0 0 0 0 0 0 0 0 0 0 0 0 0 0 0 0 0 0 0 0 0 0 0 0 0 0 0 0 0 0 0 0 0 0
0 0 0 0 0 0 0 0 0 0 0 0 0 0 0 0 0 0 0 0 0 0 0 0 0 0 0 0 0 0 0 0 0 0 0 0 0 0
0 0 0 0 0 0 0 0 0 0 0 0 0 0 0 0 0 0 0 0 0 0 0 0 0 0 0 0 0 0 0 0 0 0 0 0 0 0
0 0 0 0 0 0 0 0 0 0 0 0 0 0 0 0 0 0 0 0 0 0 0 0 0 0 0 0 0 0 0 0 0 0 0 0 0 0
0 0 0 0 0 0 0 0 0 0 0 0 0 0 0 0 0 0 0 0 0 0 0 0 0 0 0 0 0 0 0 0 0 0 0 0 0 0
0 0 0 0 0 0 0 0 0 0 0 0 0 0 0 0 0 0 0 0 0 0 0 0 0 0 0 0 0 0 0 0 0 0 0 0 0 0
0 0 0 0 0 0 0 0 0 0 0 0 0 0 0 0 0 0 0 0 0 0 0 0 0 0 0 0 0 0 0 0 0 0 0 0 0 0
0 0 0 0 0 0 0 0 0 0 0 0 0 0 0 0 0 0 0 0 0 0 0 0 0 0 0 0 0 0 0 0 0 0 0 0 0 0
0 0 0 0 0 0 0 0 0 0 0 0 0 0 0 0 0 0 0 0 0 0 0 0 0 0 0 0 0 0 0 0 0 0 0 0 0 0
0 0 0 0 0 0 0 0 0 0 0 0 0 0 0 0 0 0 0 0 0 0 0 0 0 0 0 0 0 0 0 0 0 0 0 0 0 0
0 0 0 0 0 0 0 0 0 0 0 0 0 0 0 0 0 0 0 0 0 0 0 0 0 0 0 0 0 0 0 0 0 0 0 0 0 0
0 0 0 0 0 0 0 0 0 0 0 0 0 0 0 0 0 0 0 0 0 0 0 0 0 0 0 0 0 0 0 0 0 0 0 0 0 0
0 0 0 0 0 0 0 0 0 0 0 0 0 0 0 0 0 0 0 0 0 0 0 0 0 0 0 0 0 0 0 0 0 0 0 0 0 0
0 0 0 0 0 0 0 0 0 0 0 0 0 0 0 0 0 0 0 0 0 0 0 0 0 0 0 0 0 0 0 0 0 0 0 0 0 0
0 0 0 0 0 0 0 0 0 0 0 0 0 0 0 0 0 0 0 0 0 0 0 0 0 0 0 0 0 0 0 0 0 0 0 0 0 0
0 0 0 0 0 0 0 0 0 0 0 0 0 0 0 0 0 0 0 0 0 0 0 0 0 0 0 0 0 0 0 0 0 0 0 0 0 0
0 0 0 0 0 0 0 0 0 0 0 0 0 0 0 0 0 0 0 0 0 0 0 0 0 0 0 0 0 0 0 0 0 0 0 0 0 0
0 0 0 0 0 0 0 0 0 0 0 0 0 0 0 0 0 0 0 0 0 0 0 0 0 0 0 0 0 0 0 0 0 0 0 0 0 0
0 0 0 0 0 0 0 0 0 0 0 0 0 0 0 0 0 0 0 0 0 0 0 0 0 0 0 0 0 0 0 0 0 0 0 0 0 0
0 0 0 0 0 0 0 0 0 0 0 0 0 0 0 0 0 0 0 0 0 0 0 0 0 0 0 0 0 0 0 0 0 0 0 0 0 0
0 0 0 0 0 0 0 0 0 0 0 0 0 0 0 0 0 0 0 0 0 0 0 0 0 0 0 0 0 0 0 0 0 0 0 0 0 0
Wind_Speed
2 2 1 1 1 1 2 3 5 4 2 1 1 2 2 3 5 4 5 8 9 9 9 9 8 8 9 8 8 7 7 7 6 6 5 5 4 3
2 3 3 2 2 2 2 2 2 4 3 2 1 2 3 3 6 4 4 7 7 7 7 7 6 6 6 6 6 6 6 6 6 5 4 4 3 2
5 4 4 3 2 2 3 3 3 4 5 3 2 3 4 4 4 3 3 2 2 4 5 5 5 5 5 5 4 4 4 5 5 4 4 4 3 2
5 5 5 4 4 3 3 4 3 3 5 6 3 3 3 3 3 3 2 2 1 3 4 5 5 5 4 4 4 4 4 4 5 5 5 4 4 4
5 5 5 5 5 4 4 4 4 4 4 6 4 3 3 3 3 2 2 1 1 2 3 4 5 5 4 4 5 5 5 5 5 5 5 4 4 4
6 6 5 5 5 5 5 5 5 6 6 6 5 4 3 2 3 2 1 0 0 1 2 2 3 5 5 6 6 7 7 7 6 6 6 5 5 5
7 7 7 8 9 6 5 5 6 5 5 5 5 4 2 2 2 1 1 0 1 0 1 0 1 1 3 5 7 8 8 8 8 8 7 7 7 7
7 6 7 8 10 11 10 8 7 7 6 4 3 4 2 2 2 2 2 2 1 1 1 1 1 2 3 3 7 9 9 9 9 9 9 8 8 8
6 6 7 7 8 7 10 11 10 8 6 5 5 3 3 2 3 2 2 2 2 2 2 1 1 2 3 4 8 9 10 10 10 10 10 9 9 9
7 6 6 7 7 7 7 8 7 6 5 4 4 3 3 3 3 3 3 2 1 1 2 1 1 2 3 2 6 9 10 10 10 10 10 10 10 10
7 7 6 7 8 9 8 8 7 6 7 7 5 4 3 3 4 3 3 3 2 2 0 1 1 1 2 2 4 6 8 9 10 10 10 10 11 9
5 6 9 8 8 8 6 6 6 3 3 4 5 4 3 3 3 3 3 3 1 1 2 1 0 0 2 3 2 2 3 6 9 11 11 12 11 5
4 4 4 8 8 8 6 4 2 2 2 3 3 3 3 2 1 0 2 3 3 2 3 2 1 1 1 3 3 2 2 3 3 5 9 12 12 9
2 2 3 6 7 6 4 3 4 4 3 3 2 2 1 1 1 1 1 2 3 4 3 3 2 2 2 1 3 3 3 3 3 4 4 6 9 12
2 4 5 6 5 4 5 5 4 3 2 2 1 1 1 1 1 2 2 2 2 3 3 3 3 3 3 3 3 3 3 4 3 3 4 4 4 4
4 5 6 6 4 3 3 3 2 1 1 1 1 1 2 2 1 1 1 1 2 4 4 3 3 4 3 4 3 4 3 4 3 4 4 4 4 4
3 3 4 4 4 3 3 2 2 2 1 1 1 1 1 2 2 1 1 1 1 2 4 4 2 2 5 4 3 4 4 4 4 4 2 4 5 6
3 2 2 2 2 2 1 2 1 1 0 0 0 0 1 1 2 2 1 0 1 2 3 3 2 3 3 3 6 5 4 4 4 4 3 3 5 6
2 1 1 2 1 1 1 1 1 1 1 0 0 1 1 1 1 2 1 1 2 3 3 2 1 1 1 5 7 5 5 4 3 3 4 4 5 6
1 1 2 2 2 1 1 1 1 1 1 1 1 1 1 1 1 2 2 2 2 3 3 3 2 3 4 5 5 6 6 6 4 4 5 4 5 8
3 2 2 2 2 2 2 2 2 2 2 1 1 2 2 1 2 2 3 4 3 2 4 5 6 6 3 1 3 6 6 7 9 6 5 4 4 4
3 3 3 3 3 2 2 2 2 2 2 2 2 2 2 2 3 4 3 3 3 4 5 5 6 3 2 3 5 7 7 7 7 10 12 11 5 5
4 4 3 3 3 3 2 3 3 3 3 3 2 3 2 2 3 3 3 4 4 4 4 5 4 3 3 4 5 6 8 8 5 5 7 11 15 18
Wind_Direction
19 31 49 14 106 114 131 150 150 150 139 115 83 57 78 87 102 97 98 108 110 113 112 112 114 117 119 119 122 125 123 121 122 125 128 129 131 129
28 40 38 28 56 74 108 120 122 132 131 127 105 109 108 111 107 95 98 110 114 120 124 128 131 132 136 136 133 133 134 137 140 147 152 155 156 157
30 44 44 45 60 68 80 87 91 103 116 103 79 102 105 114 107 93 94 94 104 130 143 150 152 152 149 142 142 150 157 160 164 174 183 189 200 220
33 41 39 53 62 68 84 93 96 96 121 122 110 100 93 111 106 106 110 123 133 164 174 171 166 165 164 167 179 193 192 195 197 201 206 216 225 236
36 43 40 56 63 68 83 91 94 94 97 117 116 98 88 100 95 90 91 65 181 185 186 189 190 193 195 202 212 215 217 218 217 217 219 225 235 246
38 42 42 52 66 75 83 88 94 95 99 107 109 103 98 94 99 102 81 32 254 207 187 183 194 206 214 219 224 226 226 226 227 226 227 232 238 245
40 41 47 57 64 71 86 95 102 104 104 107 108 105 106 115 131 140 134 70 357 70 88 231 186 213 229 232 231 231 230 230 230 231 232 236 239 244
45 41 47 49 57 66 76 83 101 114 115 111 113 124 134 139 135 141 132 108 340 307 125 262 172 241 246 234 234 232 232 233 234 234 235 237 240 244
47 44 49 46 54 67 69 67 67 80 102 123 126 139 149 168 148 131 135 149 193 214 127 258 263 253 252 243 236 234 233 232 234 236 237 238 241 245
48 51 56 45 50 68 74 65 58 58 75 94 118 134 150 157 151 151 153 122 46 6 122 170 276 266 271 262 252 240 238 238 239 240 240 242 244 247
44 46 54 57 56 71 76 71 60 46 60 78 96 108 119 135 137 104 89 86 51 320 303 145 257 295 295 283 275 258 247 246 247 248 247 246 248 251
35 35 45 58 59 68 78 80 70 43 45 49 49 44 52 57 91 129 139 126 126 290 277 128 226 33 325 300 287 282 269 259 254 251 248 248 245 238
37 21 21 43 54 60 71 81 81 73 62 64 49 30 23 20 14 100 157 151 158 224 230 157 167 169 203 293 302 275 248 255 261 258 252 249 242 219
34 357 358 26 39 40 47 48 61 69 64 58 48 23 5 339 319 314 228 204 199 211 222 169 175 186 183 263 285 293 281 255 240 253 258 258 250 234
7 356 5 17 24 25 23 31 49 63 62 55 34 328 282 280 314 344 347 348 319 267 238 203 190 194 182 209 246 265 285 283 254 249 260 252 245 232
2 352 4 17 20 4 2 12 32 82 116 125 269 302 326 347 352 351 348 352 349 317 304 257 215 194 207 223 221 252 251 261 274 261 257 264 255 231
352 6 13 11 8 2 0 357 8 28 41 12 15 356 347 348 334 337 346 5 343 298 305 310 285 226 220 212 238 254 258 262 259 259 252 268 267 250
47 22 359 353 347 341 349 349 350 349 307 254 335 307 301 311 319 328 340 293 280 280 281 290 321 346 342 290 222 236 258 257 265 262 230 242 273 272
48 348 320 308 297 291 272 239 272 282 269 209 232 260 267 282 297 308 314 306 288 281 278 274 266 208 291 292 289 230 216 254 267 274 251 230 246 263
323 285 277 267 255 245 239 241 260 282 271 264 273 278 269 263 286 290 284 272 277 285 293 293 266 229 219 242 264 278 242 223 237 256 266 263 259 266
288 277 255 247 244 237 241 244 243 254 258 255 267 270 267 253 268 276 279 284 279 277 281 277 268 263 239 244 284 281 275 247 223 226 242 258 274 282
262 261 257 246 239 239 243 242 245 253 258 254 259 261 259 246 255 270 272 272 271 267 270 275 287 295 253 252 266 273 283 290 277 257 239 223 220 237
244 241 245 250 242 234 227 227 227 238 239 238 242 249 251 254 258 261 267 269 273 279 282 289 298 295 273 262 267 275 280 285 290 295 284 262 245 246